GOES 19

Last updated on Sun Aug 31 2025 00:02:23 GMT+0000 (Coordinated Universal Time)

1 60133U 24119A 25242.22584111 -.00000245 00000+0 00000+0 0 9999 2 60133 0.0307 345.3116 0000351 262.1310 97.3246 1.00271482 4046
UTC large
Height (km)
Speed (km/s)
/
Latitude / Longitude
Inclination (degrees)
Orbital Period (minutes)
Azimuth
Elevation
Range (km)
Doppler Factor

Next 0 passes for location: London (51.5072 / 0.1276)

Sorry there are no passes over London.